Вернуться в каталог

HULIANWANG DIGUI-19

АктивенСвязьLEO
NORAD 62979·PAYLOAD·🇨🇳 China

Запущен Feb 11, 2025 с Wenchang Space Launch Site

Loading…

Ближайшие Пролёты (ближайшие 24 часа)

TLE

СвежийSource: Space-Track

Эпоха: Sep 14, 2026, 21:35 UTC

1 62979U 25030J   26257.89975123 -.00000101  00000-0  50576-4 0  9999
2 62979  50.0043 274.0253 0000473  16.1106 343.9781 13.29321375 77790

Отслеживайте HULIANWANG DIGUI-19 в реальном времени с AllMySat

Download on the App Store